Regional Weather Roundup
Issued by NWS

Home | Current Version | Previous Version | Text Only | Print | Product List | Glossary On
Versions: 1 2 3 4 5 6 7 8 9 10 11 12 13 14 15 16 17 18 19 20 21 22 23 24 25 26 27 28 29 30 31 32 33 34 35 36 37 38 39 40 41 42 43 44 45 46 47 48 49 50
000
ASUS44 KEWX 292210
RWRTX
SOUTH TEXAS REGIONAL WEATHER ROUNDUP
NATIONAL WEATHER SERVICE AUSTIN/SAN ANTONIO TX
500 PM CDT TUE JUL 29 2014

NOTE: "FAIR" INDICATED FEW OR NO CLOUDS BELOW 12,000 FEET WITH NO
SIGNIFICANT WEATHER AND/OR OBSTRUCTIONS TO VISIBILITY.

* - THESE STATIONS ARE NOT NWS OR FAA STATIONS...AND ARE NOT SUBJECT
    TO NWS AND FAA QUALITY CONTROL.

TXZ171-172-183>190-292300-
TEXAS HILL COUNTRY AND EDWARDS PLATEAU

CITY           SKY/WX    TMP DP  RH WIND       PRES   REMARKS
JUNCTION       SUNNY     98  54  22 SE10      30.03F HX  96
*LLANO         PTSUNNY   97  66  36 E14G20    30.07R HX 100
BURNET         PTSUNNY   83  71  67 NE18G28   30.11R
*HORSESHOE BAY LGT RAIN  92  66  43 NE8G17    30.05R HX  94
*KERRVILLE     MOSUNNY   97  58  26 SE10      30.05F HX  96
*FREDERICKSBRG PTSUNNY   96  54  23 SE9       30.06S HX  94
*ROCKSPRINGS   MOSUNNY   95  55  26 SE10G16   30.10F HX  93
*BOERNE STAGE  SUNNY     95  55  26 E7        30.06S HX  93
*CASTROVILLE   SUNNY     99  55  22 SE10      30.02F HX  97
HONDO          SUNNY     96  56  26 VRB3      30.02F HX  94
*UVALDE        SUNNY     98  55  23 S8        30.01F HX  96
DEL RIO        SUNNY    102  54  20 SE15G25   29.97F HX 100
LAUGHLIN AFB   SUNNY    100  53  20 S14G21    29.98F HX  97
CARRIZO SPRGS  SUNNY    100  57  23 CALM      29.96F HX  99
$$

TXZ173-191>194-202-209-217>225-228-292300-
CENTRAL AND SOUTH CENTRAL TEXAS

CITY           SKY/WX    TMP DP  RH WIND       PRES   REMARKS
GEORGETOWN     PTSUNNY   82  73  74 NE13      30.09R
AUSTIN/BERGSTM PTSUNNY   96  69  41 NE24G35   30.01F HX 102
AUSTIN/MABRY   MOSUNNY   91  71  51 E12G21    30.05R HX  97
*AUSTIN/EXEC   MOSUNNY   91  72  52 NE17G24   30.06R HX  98
*LAGO VISTA    PTSUNNY   86  70  58 E18G28    30.08R HX  90
SAN MARCOS     MOSUNNY   99  63  30 E7        30.02F HX 100
NEW BRAUNFELS  MOSUNNY   99  61  28 MISG      30.00F HX  99
RANDOLPH AFB   SUNNY     99  58  25 S10G17    30.01F HX  99
PT SAN ANTONIO SUNNY     97  60  28 S8        30.00F HX  97
SAN ANTONIO    PTSUNNY   98  61  29 S8        30.01F HX  98
STINSON FIELD  MOSUNNY   99  60  27 E10G17    29.99F HX  99
*PLEASANTON    MOSUNNY  100  55  21 SE5       29.99F HX  98
*LA GRANGE     PTSUNNY   97  70  41 NE5       30.01F HX 104
*GIDDINGS      PTSUNNY   90  71  52 E15       30.09S HX  96
*GONZALES      PTSUNNY  101  65  30 SE6       29.99F HX 104
$$

TXZ163>164-176>182-195>201-210>213-226-227-235-292300-
SOUTHEAST TEXAS

CITY           SKY/WX    TMP DP  RH WIND       PRES   REMARKS
COLLEGE STN    PTSUNNY   87  75  67 S3        30.06F HX  96
*BRYAN         CLOUDY   N/A N/A N/A NE8       30.06F
*CALDWELL      CLOUDY    88  70  55 E5        30.10S HX  92
*CROCKETT      PTSUNNY   90  73  58 CALM      30.11R HX  98
*BRENHAM       PTSUNNY   83  74  74 CALM      30.06F HX  90
HUNTSVILLE     PTSUNNY   91  66  43 CALM      30.06F HX  93
CONROE         PTSUNNY   87  72  60 SE10      30.06F HX  93
HOUSTON BUSH   CLOUDY    80  74  81 W3        30.05F
HOUSTON HOBBY  CLOUDY    78  73  84 N6        30.03F
*HOUSTON SW AP CLOUDY    84  71  64 NW12      30.04F
PEARLAND       CLOUDY    80  74  81 CALM      30.05F
HOUSTON HOOKS  CLOUDY    81  77  88 CALM      30.05F
ELLINGTON FLD  PTSUNNY   77  73  88 NE6       30.04F
SUGAR LAND     CLOUDY    82  74  76 NE8       30.02F
*HOUSTON EXEC  CLOUDY    82  73  74 NE8       30.05F
*CLEVELAND MUN CLOUDY    88  76  67 CALM      30.05F HX  99
*WHARTON       MOSUNNY   89  71  55 NE18G28   30.03R HX  94
$$

TXZ214>216-236>238-292300-
THE UPPER TEXAS COAST

CITY           SKY/WX    TMP DP  RH WIND       PRES   REMARKS
*ORANGE        MOSUNNY   88  71  55 N6        30.04F HX  94
PORT ARTHUR    MOSUNNY   89  74  60 NW7       30.02F HX  98
GALVESTON      CLOUDY    85  72  65 NE5       30.04F HX  91
ANGLETON         N/A     77  32  19 SE14G23   30.05R THUNDER
*BAY CITY      PTSUNNY   90  79  70 S10       30.01F HX 105
PALACIOS       SUNNY     88  74  63 S18       30.02F HX  96
$$

TXZ229>234-239>247-292300-
TEXAS COASTAL BEND AND RIO GRANDE PLAINS

CITY           SKY/WX    TMP DP  RH WIND       PRES   REMARKS
VICTORIA       PTSUNNY  100  69  36 E14G21    30.00F HX 106
*BEEVILLE      SUNNY    100  58  25 SE7       29.99S HX  99
ROCKPORT       SUNNY     88  74  63 SE13      30.02S HX  96
*PORT ARANSAS  SUNNY     86  76  73 SE10      30.03F HX  96
*PORT LAVACA   SUNNY     92  70  48 S10       30.02S HX  98
*INGLESIDE     SUNNY     92  71  49 SE15      30.02S HX  98
CORPUS CHRISTI PTSUNNY   96  64  34 SE18G28   30.00F HX  98
CORPUS NAS     PTSUNNY   89  76  65 SE20      30.02F HX 100
*ROBSTOWN      NOT AVBL
ALICE          SUNNY    102  60  25 E12       29.96F HX 103
KINGSVILLE NAS PTSUNNY   98  70  40 SE17G25   29.99R HX 105
COTULLA        SUNNY    101  50  18 S9G20     29.97F HX  98
*FAITH RANCH   SUNNY    100  57  23 SE10G16   29.99F HX  99
LAREDO         SUNNY    103  58  22 VRB7      29.97F HX 102
$$

TXZ248>255-292300-
DEEP SOUTH TEXAS

CITY           SKY/WX    TMP DP  RH WIND       PRES   REMARKS
BROWNSVILLE    SUNNY     94  73  50 SE12G22   29.99F HX 103
PORT ISABEL    SUNNY     91  74  57 SE20      30.00S HX 100
*SOUTH PADRE   SUNNY     90  77  66 SE10      30.01F HX 102
HARLINGEN      MOSUNNY   96  67  38 SE13G23   29.96F HX 100
*HEBBRONVILLE  SUNNY    101  52  19 E13       29.98F HX  98
MCALLEN        SUNNY    102  63  27 SE10G21   29.96F HX 104
*WESLACO       MOSUNNY  101  61  27 S10G17    29.96S HX 101
FALFURRIAS     SUNNY     93  55  27 E16G22    29.95F HX  91
EDINBURG       SUNNY    102  59  24 SE10G16   29.96F HX 102
*ZAPATA        NOT AVBL
$$

TXZ213>215-236>238-242>244-246-247-251-254-255-292300-
CMAN STATIONS

STATION/POSITION TIME  TEMP    WIND        PRES    WAVE
                       AIR SEA DIR/SP/G            HT/PER
                 (UTC) (F)     (DEG/KT/KT) (MB)    (FT/S)
SABINE PASS      2200   85 87  300/  3/  5 1017.1
SEA RIM ST PARK  2200   84     300/  3/  4 1017.4
NORTH JETTY/GLS  2200   82 89   10/  2/  4   N/A
EAGLE POINT      2200   80 88  350/  5/  7 1017.2
MORGANS POINT    2200   81 92   20/  4/  5 1017.0
MISSION/ARANSAS  2100   83     140/ 13     1018.0
PORT O`CONNOR    2200          160/ 12/ 14   N/A
PORT ARANSAS     2200   82 84  110/  9/ 10 1017.8
MALAQUITE BEACH  2200   81 79  100/ 11/ 12 1015.9
BAFFIN BAY       2200   84 91  110/ 16/ 19 1016.1
PORT ISABEL      2200   85 83  100/ 15/ 19 1016.7
$$

GMZ080-GMZ150>470-292300-
OFFSHORE BUOY REPORTS

STATION/POSITION TIME  TEMP    WIND        PRES    WAVE
                       AIR SEA DIR/SP/G            HT/PER
                 (UTC) (F)     (DEG/KT/KT) (MB)    (FT/S)
20 E GALVESTON   2200   83 86  340/  6/  8 1017.2
90 E PT ARANSAS  2200   84 88  350/  2/  4 1018.0    1/ 5
35 NE PT MANSFLD 2200   84 86  130/  8/ 10 1016.5    1/ 5
200 E PT ISABEL  2200   85 87  350/  4/  6 1017.4    1/ 5
$$


USA.gov is the U.S. government's official web portal to all federal, state and local government web resources and services.